Wind_Speed
17 17 17 17 17 17 17 16 16 16 16 15 15 14 14 13 13 12 11 10 9 9 8 7 7 7 7 7 7 7 7 7 7 6 7 7 7 7 7 7 7 7 7 6 6 6 6 6 6 6 5 4 4 4 3 3 3 4 4 4 4 4 4 4 4 5 6 6 7 7 7 6 7 8 8 9 10 10 12 13 12 12 10 8 9 9 9 9
17 18 18 18 18 18 18 18 17 17 16 15 15 15 14 14 13 12 11 10 9 8 7 7 7 7 7 7 7 7 7 7 7 6 7 7 7 8 8 7 7 7 6 6 5 5 6 6 6 6 5 4 3 3 3 3 3 4 4 4 4 4 4 4 4 4 5 6 7 7 8 8 8 9 8 9 11 12 13 14 14 13 11 9 10 10 10 10
17 18 19 19 19 19 19 18 18 17 16 16 15 15 15 14 13 12 11 10 9 8 7 7 7 7 7 7 7 7 7 7 7 6 7 7 8 8 8 8 7 6 6 6 5 5 6 6 5 4 3 3 2 2 3 3 3 3 4 4 4 4 3 4 4 4 5 6 7 8 9 10 10 10 10 10 12 13 14 15 16 15 12 11 11 11 11 11
17 18 19 19 19 19 19 18 18 17 17 16 16 16 15 14 13 12 11 10 9 8 8 7 7 7 7 7 7 7 7 8 8 8 8 8 8 8 8 7 7 6 6 5 5 5 5 4 3 2 2 2 3 3 3 3 3 3 4 4 4 4 4 4 5 6 6 7 8 9 10 12 12 12 13 12 11 13 15 15 16 15 13 11 11 11 11 11
17 17 18 19 19 20 19 18 18 18 17 17 16 16 15 14 13 12 11 10 10 9 9 8 8 7 8 8 7 7 7 8 9 8 7 8 8 8 7 7 7 6 5 5 5 4 4 3 3 2 3 3 3 3 3 3 4 4 4 5 5 5 6 6 7 7 8 9 10 11 12 13 14 14 14 13 12 14 15 16 16 15 13 12 11 11 11 11
17 18 19 19 20 20 20 19 19 18 18 17 17 16 16 15 14 13 12 12 11 10 10 9 9 8 8 8 8 8 7 7 9 8 7 7 7 7 7 8 7 6 6 5 5 5 4 4 4 4 4 4 4 4 5 5 5 5 5 6 6 7 7 8 8 8 8 9 11 12 13 13 14 15 15 14 14 14 15 15 16 16 15 14 12 11 10 11
18 18 19 21 21 22 21 20 20 19 18 18 18 17 17 16 15 14 13 13 12 11 11 10 10 9 9 9 9 9 8 10 11 11 10 9 8 8 8 8 8 7 6 6 6 6 6 5 5 5 5 6 6 5 6 6 6 7 7 7 7 8 9 9 9 9 9 11 12 13 13 13 13 15 15 14 14 14 14 13 14 16 17 16 14 12 11 11
19 19 20 22 23 23 23 22 21 20 20 19 18 18 18 17 16 15 15 14 14 13 13 12 12 11 11 10 11 10 10 11 13 13 11 10 10 10 9 9 8 8 7 7 8 7 7 7 7 7 7 7 7 7 7 7 8 8 9 9 9 9 9 9 10 10 11 12 13 13 13 13 13 15 16 15 14 14 14 13 14 16 18 18 16 15 14 13
21 21 21 22 23 24 24 23 22 22 21 20 20 19 19 18 17 17 16 16 15 15 14 14 13 13 12 12 12 12 11 12 14 13 12 11 11 11 11 10 10 9 9 9 9 9 9 8 8 8 8 9 9 9 9 9 10 9 9 9 10 11 11 11 12 12 12 12 13 13 13 14 14 16 16 15 14 14 14 14 14 16 17 18 18 17 17 17
23 22 22 23 24 25 25 25 24 23 22 22 21 21 20 19 19 18 18 17 17 17 16 15 15 15 14 14 14 14 12 13 14 14 14 13 13 13 12 12 11 11 11 11 11 10 10 10 10 10 10 11 11 11 11 11 11 11 11 11 12 13 13 13 13 12 12 13 14 15 15 15 15 16 17 16 15 14 14 15 15 16 17 18 19 19 19 19
24 24 24 24 24 25 26 26 25 24 23 23 22 22 21 20 20 19 19 19 18 18 17 17 17 17 16 16 16 15 14 15 15 15 14 14 14 14 14 14 13 13 12 12 12 12 12 12 11 11 12 12 12 12 13 13 13 13 13 13 13 13 14 13 13 13 14 15 16 16 16 16 16 17 17 16 16 16 15 16 16 17 18 19 19 20 20 20
26 26 26 26 26 26 27 27 27 26 25 24 23 23 22 21 21 20 20 20 20 19 19 19 19 18 19 18 17 16 16 16 16 16 16 15 15 15 15 14 14 14 14 13 13 13 13 13 13 13 13 14 14 14 14 14 14 15 15 15 14 14 15 15 15 14 14 15 16 16 16 16 17 17 17 16 17 18 17 17 17 18 19 20 21 21 21 20
29 28 27 27 28 27 28 28 28 28 27 26 25 24 23 22 22 22 21 21 21 21 20 20 20 20 21 20 18 17 17 17 17 17 17 16 16 16 16 16 16 15 15 15 15 15 14 15 15 15 16 16 17 17 17 17 17 17 17 17 16 15 15 15 14 13 13 13 14 14 13 14 16 15 15 16 16 17 18 19 19 20 21 21 22 21 21 21
30 30 29 29 29 29 29 29 29 29 28 27 26 25 25 24 23 23 22 23 22 22 22 22 22 22 23 22 19 19 18 18 18 18 18 17 17 17 16 17 17 17 17 16 16 16 16 17 16 17 18 18 19 19 19 19 19 19 18 18 17 14 13 14 12 12 12 13 13 13 12 14 17 16 16 17 18 18 18 19 21 21 22 22 22 22 22 22
32 31 31 31 30 30 30 29 30 30 29 28 27 27 26 25 25 24 24 24 24 24 24 24 23 24 25 24 22 21 20 19 19 18 19 18 18 18 18 18 18 18 18 18 18 18 18 19 18 19 19 20 21 20 20 20 20 19 16 17 17 14 15 16 14 14 14 13 13 13 13 15 18 17 17 18 18 19 19 20 21 22 22 22 22 23 23 23
34 33 33 32 32 31 30 30 30 30 30 29 29 28 27 27 26 26 26 25 25 25 25 25 24 25 27 25 22 21 20 20 20 20 20 20 20 20 19 19 19 19 19 20 20 20 20 20 20 21 21 22 22 21 20 19 21 20 17 18 18 16 16 16 15 14 13 13 14 15 15 17 18 17 17 17 18 18 19 20 21 21 22 22 23 23 23 24
36 35 35 34 33 32 32 31 31 30 30 30 30 29 29 29 28 27 27 27 27 26 26 27 26 27 28 25 22 20 18 18 19 19 20 21 21 21 21 21 21 21 21 21 22 22 22 22 22 22 22 23 23 21 17 18 20 18 15 16 17 17 17 16 16 16 15 15 16 17 19 21 21 20 20 20 20 20 20 21 22 22 23 23 23 24 24 25
37 37 36 36 35 34 33 33 32 32 32 32 31 31 30 30 29 29 29 28 28 28 28 28 27 28 28 25 22 20 19 20 20 19 20 20 20 20 21 21 21 22 22 23 23 23 23 23 23 22 23 25 24 22 19 17 17 15 14 15 17 18 19 19 19 18 18 17 18 20 22 23 22 22 22 22 23 23 24 24 24 24 24 24 24 24 23 21
39 38 38 37 36 35 34 34 33 33 33 32 32 32 31 31 31 30 29 29 29 28 28 27 26 26 26 23 21 20 20 20 20 20 20 20 20 21 21 22 22 22 23 24 24 24 24 24 24 24 26 26 23 21 20 18 16 16 17 18 19 20 22 23 22 21 21 21 22 24 24 24 25 24 23 24 25 25 26 25 25 24 24 23 23 22 19 16
40 39 39 39 38 36 35 35 34 34 33 33 33 33 32 31 31 31 30 31 30 29 29 29 29 29 28 26 23 22 21 20 19 18 18 19 19 20 22 23 24 24 24 24 24 24 24 25 27 27 27 25 22 19 18 18 18 19 20 20 21 22 24 26 23 22 22 23 25 25 25 25 25 25 25 26 26 26 26 25 24 24 23 23 21 19 16 15
40 39 40 39 38 37 36 36 35 34 34 34 34 33 33 31 30 31 31 31 31 30 31 31 32 32 30 28 27 26 25 24 23 21 21 20 20 20 21 22 23 24 25 25 25 25 26 28 29 26 25 23 21 20 20 20 21 22 22 22 22 25 27 26 24 24 23 24 26 25 26 26 24 25 26 26 27 26 25 25 24 23 24 23 20 18 16 16
40 40 39 39 39 38 37 36 35 35 35 35 35 33 32 30 30 31 31 32 33 32 32 33 33 33 31 29 28 27 28 27 27 26 25 24 24 24 24 24 24 25 25 25 26 26 29 31 29 25 24 22 22 22 21 21 23 23 23 23 25 27 27 24 23 23 21 22 24 23 25 26 24 25 28 27 27 26 25 24 23 22 22 21 20 18 18 17
41 40 39 40 39 38 38 37 36 36 35 35 34 32 31 30 30 30 31 34 36 35 34 35 35 34 32 32 30 29 30 29 27 27 27 27 26 26 27 27 27 27 27 28 27 28 30 29 25 22 22 22 22 23 22 23 25 25 25 25 26 27 23 20 20 21 20 20 22 23 27 30 28 28 30 30 29 27 25 23 22 21 19 19 19 19 18 17
42 40 39 40 39 39 38 37 38 37 35 34 32 30 30 30 29 30 30 34 39 39 36 36 36 36 34 33 32 32 32 30 29 30 28 28 27 28 29 29 29 31 31 30 29 30 32 29 25 23 22 22 22 22 22 24 25 26 26 25 26 26 23 20 20 22 23 24 26 25 26 30 31 28 28 29 28 26 24 22 21 20 19 19 19 19 19 18
43 41 41 40 40 40 38 39 40 36 35 33 30 29 30 30 29 29 30 33 40 43 38 38 38 37 36 35 34 33 32 33 32 31 30 29 29 30 31 30 31 34 33 30 30 32 33 32 30 29 28 27 26 26 25 24 25 26 26 27 27 25 24 22 22 22 21 21 25 21 14 16 19 16 16 19 21 22 21 20 20 20 19 19 19 19 18 18
43 42 42 41 41 40 40 42 39 35 35 32 29 30 30 29 28 28 28 29 41 47 41 39 37 35 36 36 36 33 33 36 34 32 32 31 31 32 32 33 34 34 33 30 30 33 35 33 31 30 30 29 29 29 28 26 26 28 29 28 25 23 22 21 20 18 14 13 16 14 10 9 11 11 10 11 15 17 18 18 19 19 19 19 18 18 18 18
44 43 43 43 42 41 42 42 37 36 36 30 29 31 29 28 27 26 22 19 31 42 39 37 36 34 34 32 32 31 32 35 32 32 34 33 34 35 35 37 36 35 34 30 28 32 34 31 30 30 29 30 31 30 28 26 27 29 29 26 22 22 20 18 17 16 15 15 14 16 17 13 15 21 18 14 15 16 16 17 17 18 18 19 19 19 19 19
45 44 44 45 44 43 43 41 38 37 33 30 31 30 28 27 24 22 15 7 15 23 22 26 31 32 31 29 28 31 33 33 28 29 32 32 35 37 37 39 39 37 35 32 32 34 33 28 27 26 25 28 29 27 23 22 25 27 26 23 21 19 17 15 14 15 16 16 14 20 22 12 13 24 23 20 22 21 19 20 19 20 21 21 21 20 20 19
45 45 45 45 45 44 44 43 41 37 32 32 31 29 28 25 22 18 9 8 17 20 15 18 22 23 24 26 27 29 32 32 29 29 28 29 33 37 39 39 38 37 36 35 35 35 33 30 28 26 26 28 26 22 20 20 23 24 22 21 20 16 13 12 12 13 14 12 14 22 24 13 10 18 22 22 25 24 22 21 22 23 23 22 22 21 20 19
46 47 46 45 45 46 46 45 41 36 34 34 32 31 28 25 24 17 7 13 20 16 15 17 21 22 21 22 23 24 27 28 29 29 29 30 31 34 37 37 35 35 36 36 36 37 36 34 32 30 29 29 25 22 21 22 22 22 19 18 16 14 13 12 13 12 9 9 16 24 27 19 8 10 19 23 21 19 18 19 22 24 22 20 19 19 18 17
45 47 46 46 47 48 48 46 41 37 36 37 35 32 28 27 26 16 11 26 24 14 17 20 20 23 21 21 21 22 24 25 26 29 30 31 32 34 35 35 35 31 32 36 36 36 37 36 35 35 34 30 27 26 25 24 23 22 20 17 13 8 8 8 9 9 7 5 10 17 23 22 15 10 12 14 12 12 16 19 21 20 17 16 16 16 16 15
42 44 46 46 46 48 49 44 40 38 38 38 33 30 30 26 24 24 27 28 17 13 21 22 21 21 19 21 22 22 23 24 26 29 31 33 34 37 36 36 35 28 26 34 37 36 37 38 37 35 35 33 30 28 26 25 24 22 20 17 12 6 5 6 4 5 8 7 7 11 14 17 22 22 17 12 11 13 17 18 17 16 14 14 15 15 16 14
43 43 45 47 46 46 46 43 40 37 37 36 29 31 33 22 22 43 47 30 12 9 14 15 20 23 20 22 25 24 25 27 29 30 32 34 36 38 37 36 36 30 24 26 31 31 28 31 35 36 36 36 34 33 31 28 27 26 25 22 16 7 3 5 4 2 6 8 11 13 10 11 18 23 21 19 17 17 20 18 17 17 15 15 15 15 16 15
46 43 45 48 48 46 42 42 41 37 34 34 32 37 36 26 34 51 52 43 29 17 11 9 15 21 23 25 26 26 28 30 32 32 33 35 37 39 39 38 37 36 32 24 22 24 18 17 25 30 30 31 33 35 34 30 25 24 27 27 21 15 8 4 4 3 1 2 8 12 8 7 10 9 11 17 20 21 21 20 20 19 18 17 17 18 18 18
49 45 43 45 49 50 47 43 41 37 34 35 38 43 40 39 50 50 45 49 44 33 26 17 13 18 22 26 27 27 29 31 31 33 35 37 39 39 40 40 39 38 36 28 21 22 21 21 24 24 22 23 25 29 32 30 23 20 25 28 25 24 20 9 3 4 1 1 5 12 11 12 11 7 5 11 20 24 23 22 23 21 20 19 19 20 19 18
54 50 45 45 50 53 51 47 44 40 37 38 43 49 50 53 54 45 40 45 46 44 40 28 21 23 25 28 30 29 30 31 31 32 35 38 40 42 40 38 37 37 37 33 27 23 20 22 26 24 22 22 22 23 28 30 26 22 26 31 30 29 25 14 6 6 5 5 6 12 15 17 17 15 12 13 18 23 23 24 25 22 20 20 20 20 19 18
54 56 54 53 53 54 51 46 45 43 40 42 48 52 56 59 54 45 39 38 39 42 41 36 33 32 30 31 33 33 31 31 32 32 34 34 35 40 42 37 35 36 35 33 34 31 22 18 21 22 22 23 25 24 25 31 31 27 28 31 30 25 22 17 7 2 4 6 6 11 16 17 15 14 16 18 20 22 23 23 25 24 22 21 20 18 17 17
47 54 60 61 57 55 51 46 45 45 42 46 52 54 56 58 55 51 44 40 38 36 36 40 40 37 35 35 35 34 33 33 35 34 34 33 31 33 36 34 34 35 32 31 33 34 28 20 18 21 21 22 26 26 26 31 34 32 29 28 25 17 14 16 10 3 5 5 4 7 13 17 20 18 17 18 19 19 21 24 25 25 23 20 18 16 16 17
44 48 58 64 62 57 52 48 47 46 46 51 55 57 60 59 56 54 50 47 43 38 39 43 42 37 37 37 36 34 34 37 38 36 35 35 33 33 32 29 29 29 29 32 36 35 32 22 15 19 24 23 27 30 32 34 36 37 32 26 25 20 12 16 18 9 4 4 4 4 6 12 21 22 19 17 16 15 18 22 23 22 20 18 16 16 17 18
48 51 55 59 59 56 54 51 49 48 50 55 58 61 63 60 58 57 55 52 46 43 45 45 41 38 38 37 36 34 34 37 40 39 38 37 36 36 34 30 29 27 25 29 36 37 36 29 20 20 25 26 30 34 38 38 37 38 36 31 31 29 18 15 22 20 10 3 3 4 4 6 10 13 12 11 11 13 15 17 18 19 18 18 17 17 18 18
47 53 56 57 55 52 51 51 50 52 55 58 61 63 63 59 58 58 57 55 50 47 48 45 42 42 42 39 37 36 35 37 40 41 42 43 42 38 36 32 30 29 27 29 36 38 37 36 29 25 28 32 37 38 37 38 37 37 38 38 37 36 29 16 12 20 21 13 6 4 5 4 5 6 8 12 12 13 15 17 18 19 18 17 18 18 18 18
45 55 56 58 58 54 52 53 53 53 57 60 63 66 63 59 56 55 55 56 54 52 52 49 47 46 44 44 41 38 37 39 42 44 45 47 46 42 38 34 30 29 29 30 34 37 38 38 33 31 33 35 36 36 34 35 38 38 38 40 38 39 40 27 13 15 22 22 17 8 7 9 10 8 10 13 14 15 19 21 20 19 20 21 20 19 19 20
45 58 59 56 55 55 55 56 54 53 55 58 60 62 63 61 56 51 52 54 55 54 53 51 51 49 47 46 44 42 42 41 44 47 47 47 47 44 41 38 35 33 31 32 34 36 38 39 34 30 30 31 33 35 34 32 35 39 42 43 41 41 42 38 28 18 17 22 19 7 6 11 14 12 12 13 15 19 22 21 19 19 22 22 20 19 20 22
38 48 57 57 52 52 58 58 55 54 56 57 57 58 61 62 58 52 50 50 52 54 53 52 52 50 49 48 46 45 44 42 43 46 46 46 47 45 42 41 40 38 37 37 38 36 38 40 34 20 12 15 19 23 27 32 37 42 46 45 45 44 40 39 37 25 19 24 24 13 8 10 13 14 15 15 17 21 21 19 18 18 19 19 18 18 20 23
35 36 47 54 48 47 54 58 57 58 57 57 59 59 59 60 61 60 55 49 47 49 50 51 52 51 50 49 49 49 48 46 46 44 44 47 47 46 44 42 42 43 43 42 41 38 37 40 37 26 14 11 13 16 28 43 47 46 46 45 45 45 44 43 39 29 20 21 26 26 17 11 13 16 17 18 19 19 19 19 19 19 17 17 18 19 22 24
38 34 38 43 43 44 48 51 55 58 56 56 59 61 60 60 61 63 59 52 49 48 47 47 48 49 50 51 51 51 51 50 48 45 45 46 46 45 44 43 44 46 46 45 42 39 36 37 42 43 38 32 28 27 31 39 44 45 48 48 47 46 48 46 39 35 28 19 24 37 31 20 21 19 18 20 18 17 20 21 20 19 17 19 20 21 23 24
39 37 37 37 40 49 53 51 52 55 55 56 58 60 61 62 59 56 56 57 57 54 51 48 46 46 49 52 52 51 51 49 48 49 49 46 44 42 42 44 45 46 46 45 43 40 38 40 44 48 48 46 41 34 29 28 33 41 46 48 48 47 48 48 45 45 39 24 26 39 36 31 32 25 22 26 23 22 26 24 20 20 20 22 23 23 24 25
41 39 39 37 37 45 52 54 54 52 51 55 58 57 57 59 59 55 54 57 56 54 52 52 53 53 53 52 50 49 49 48 47 51 52 49 45 41 39 41 43 43 42 42 43 42 40 43 46 46 48 49 47 42 35 27 24 29 33 40 47 48 49 51 52 50 43 35 38 43 36 34 36 31 31 34 31 31 32 28 25 27 28 28 24 25 27 27
42 42 41 39 38 40 43 48 53 53 50 52 56 56 56 57 58 57 57 54 50 51 52 53 59 61 57 54 53 51 50 49 50 53 53 51 49 45 42 42 42 43 42 40 42 42 41 44 47 46 46 48 48 48 44 32 24 24 27 30 37 43 47 50 50 47 45 45 47 44 38 39 38 32 32 32 32 34 35 32 33 33 32 29 25 27 28 28
41 42 43 42 41 40 40 44 50 55 54 53 54 54 56 57 56 56 58 56 53 53 54 55 61 63 57 53 52 53 54 53 52 52 50 49 49 48 48 47 46 44 42 42 43 43 42 44 46 44 42 42 45 46 44 39 32 29 30 32 33 37 41 43 43 44 46 48 46 41 41 44 41 35 33 33 35 36 36 37 37 34 30 27 27 29 30 32
41 40 41 42 40 39 41 45 51 54 53 52 53 53 53 55 55 53 54 56 57 57 56 57 60 59 56 54 53 53 53 52 51 50 50 49 49 48 47 48 48 47 45 46 46 45 46 46 44 40 34 36 41 40 40 43 37 34 41 43 39 38 38 38 39 41 44 45 41 40 44 45 42 39 36 36 36 36 36 37 35 30 28 29 31 33 34 35
41 41 42 41 38 36 38 43 49 52 51 50 52 51 50 50 50 49 48 49 54 57 57 58 54 49 50 54 55 54 52 51 52 53 53 53 53 50 46 45 46 47 47 48 47 48 50 49 46 39 29 31 38 37 38 37 26 30 50 54 46 45 42 39 40 41 41 40 38 40 44 42 39 38 37 37 37 37 37 35 31 29 30 33 35 36 36 35
Wind_Direction
194 193 192 192 193 193 195 197 199 201 201 198 195 191 187 186 186 187 189 191 195 199 202 207 215 223 229 235 242 247 248 247 247 246 247 248 248 249 249 249 250 250 247 245 244 245 245 244 244 247 248 249 251 250 248 241 224 213 209 204 203 206 202 203 200 192 206 220 216 220 231 241 250 257 264 275 283 285 282 278 274 275 281 282 274 272 276 280
207 206 205 204 205 206 206 207 207 206 203 198 193 190 190 191 194 195 197 199 203 207 212 218 225 233 238 243 247 252 256 256 253 252 254 254 253 252 250 250 249 243 237 237 237 238 242 245 249 253 252 248 243 237 229 210 194 192 189 184 191 195 195 196 194 198 213 225 227 229 237 248 254 258 262 269 277 280 279 279 277 277 279 273 266 269 275 281
216 216 215 215 215 215 214 211 208 204 200 197 196 196 197 198 200 201 203 206 210 216 221 227 235 243 249 253 257 262 266 268 268 264 258 255 255 252 250 249 244 236 233 236 236 239 243 249 254 254 246 227 205 198 192 185 186 186 180 184 195 195 191 199 206 210 217 231 240 242 246 253 256 258 261 264 268 269 269 272 274 277 279 269 263 268 275 281
218 218 218 218 217 216 213 209 206 203 202 202 203 204 204 204 205 207 209 213 218 225 231 236 243 250 256 261 266 271 274 279 278 270 263 257 253 252 250 247 239 236 236 233 233 237 240 242 242 230 209 186 175 179 185 196 208 203 194 201 209 211 215 221 228 231 229 233 241 247 252 257 261 264 266 265 260 259 261 263 267 272 272 267 266 271 277 281
218 217 217 215 213 211 209 208 207 208 208 208 209 210 210 210 210 213 216 221 226 232 239 245 251 257 263 268 274 279 284 288 281 269 264 258 254 252 246 240 238 237 230 221 222 224 223 218 210 205 198 191 191 203 213 222 233 230 221 222 225 230 240 243 246 248 245 243 245 248 253 258 265 269 269 266 259 256 256 258 262 264 261 258 260 265 271 276
220 218 216 213 210 209 209 210 211 213 214 214 214 215 216 216 217 219 222 227 232 237 245 252 257 263 268 273 277 281 283 280 272 265 262 260 255 247 238 238 237 229 219 214 216 216 217 215 217 223 227 227 227 231 238 240 243 245 243 244 246 247 252 256 257 258 257 255 254 254 257 261 267 269 268 266 263 259 256 256 258 258 256 255 259 266 273 277
224 222 218 214 212 211 211 213 214 215 217 217 218 220 222 223 223 225 228 232 237 242 249 255 261 266 270 275 278 279 278 271 269 268 265 262 255 243 238 239 234 226 222 219 219 221 226 229 235 240 243 248 248 248 249 249 248 252 256 259 260 257 255 256 258 261 262 262 261 262 263 266 267 267 266 266 266 263 260 257 253 252 251 253 258 265 274 285
229 226 223 220 217 215 215 216 216 217 219 220 222 224 226 228 229 231 233 237 242 246 251 257 262 267 271 274 276 277 276 271 270 269 266 261 252 244 241 240 236 233 231 227 226 229 234 237 241 247 251 255 257 256 256 258 257 258 262 263 262 261 258 256 257 260 261 261 261 262 265 268 267 267 267 266 265 264 264 261 251 246 248 252 256 262 271 283
232 230 228 225 222 220 219 219 219 219 220 222 224 226 229 231 233 235 238 241 245 249 254 259 263 268 271 274 276 276 275 271 268 267 263 257 250 246 244 244 242 240 236 232 232 234 238 242 244 247 252 255 258 260 261 262 262 261 262 262 262 263 264 265 264 262 259 257 258 261 264 266 265 266 267 266 265 262 262 261 254 248 248 251 256 262 269 278
233 232 231 229 227 225 223 222 222 221 222 224 226 228 231 233 236 238 241 245 248 252 256 261 265 268 271 274 273 274 274 270 266 263 258 253 250 248 246 245 244 242 240 238 237 239 242 244 246 249 255 260 263 265 266 265 265 266 266 265 266 266 266 267 266 264 262 261 262 264 265 264 263 263 264 264 264 262 262 262 259 255 251 252 256 261 268 276
233 234 233 232 229 227 226 224 224 224 224 225 227 230 232 235 238 241 244 248 251 255 259 263 267 270 272 272 272 274 272 267 264 260 255 252 248 246 244 244 243 243 243 243 243 244 246 247 250 256 262 266 268 271 272 270 271 272 272 271 270 270 268 265 264 265 267 267 267 267 267 264 260 258 258 259 261 263 264 264 262 259 256 256 260 264 270 275
234 234 235 234 232 230 228 226 226 226 226 227 229 231 233 236 239 243 246 250 254 257 261 265 268 271 272 271 272 274 269 265 262 257 253 250 245 243 242 243 244 245 245 247 249 250 251 253 256 261 265 269 272 275 276 276 277 277 277 276 274 273 273 270 269 268 266 266 266 268 269 265 258 255 256 256 258 262 263 264 262 260 259 260 263 268 272 276
234 234 235 236 234 232 230 228 227 227 228 229 230 232 235 238 241 245 248 252 255 259 263 266 269 271 272 271 271 271 268 264 260 256 252 248 244 243 243 244 245 247 248 250 252 253 255 258 262 265 268 271 272 273 275 278 279 279 279 279 278 277 276 274 272 268 264 265 266 265 264 264 260 255 254 254 255 259 261 260 259 258 259 262 265 269 274 280
233 233 234 236 236 235 233 231 230 230 230 231 233 235 237 240 243 246 249 253 256 259 263 266 269 271 271 271 270 269 267 263 259 255 251 247 245 244 244 245 246 247 249 251 253 255 258 262 265 267 269 270 272 273 274 277 277 278 282 281 279 279 277 275 271 267 266 267 266 261 256 260 264 263 260 260 259 260 260 257 256 256 259 263 267 272 278 284
234 234 234 235 235 236 235 234 233 233 233 234 235 237 239 241 244 247 250 253 256 260 263 265 268 270 271 271 270 268 265 262 258 253 249 247 246 245 245 246 247 248 250 253 256 258 260 263 264 266 269 270 271 271 272 275 275 277 280 279 279 277 275 275 271 268 270 269 265 260 256 259 265 268 267 266 265 263 261 258 257 257 260 264 269 274 280 286
235 235 236 236 235 235 236 236 236 235 235 236 237 238 240 242 245 248 251 254 256 259 263 265 267 269 271 271 269 267 266 261 255 251 248 247 246 246 246 246 248 249 252 254 257 259 260 262 264 265 267 268 268 269 272 273 272 274 274 274 277 276 273 273 269 268 271 268 263 257 254 259 265 269 270 270 269 267 263 261 260 261 264 268 272 277 282 287
236 237 237 238 237 235 236 237 236 237 237 238 238 240 241 243 246 248 251 254 257 260 263 265 267 269 270 269 267 266 264 259 253 248 246 245 246 247 247 248 250 251 253 255 256 258 260 261 262 264 266 266 266 266 264 265 269 275 276 272 271 270 268 270 271 275 275 271 265 258 255 259 264 268 270 269 268 268 266 264 263 264 267 271 274 278 282 284
237 238 238 239 238 237 237 237 237 237 237 238 239 240 242 244 246 248 251 254 257 260 263 265 267 268 268 267 267 264 259 254 251 247 245 244 245 246 248 248 250 252 253 254 255 256 258 259 259 261 262 260 261 261 257 263 274 279 276 270 267 266 267 270 274 279 277 272 267 263 262 264 267 268 269 267 266 265 264 264 264 265 268 272 275 278 279 276
238 239 239 240 239 238 238 238 238 238 238 239 239 240 242 244 247 249 252 255 256 259 262 266 265 263 265 266 264 261 257 253 251 247 246 246 246 247 248 249 250 251 252 253 255 255 256 257 256 256 258 261 267 271 270 273 275 271 268 264 262 265 269 272 276 277 276 273 269 267 268 271 272 271 268 266 264 263 263 263 264 267 269 271 275 277 271 263
239 239 240 240 239 239 238 238 239 239 239 240 240 241 242 244 248 251 253 256 258 260 262 263 262 261 262 262 261 259 257 254 252 249 247 246 246 247 247 248 250 250 251 253 254 255 255 254 255 258 263 269 274 275 271 266 262 262 262 260 260 264 269 274 278 277 275 272 271 272 272 272 272 271 267 263 262 261 262 265 266 268 269 270 272 271 263 260
239 239 240 240 239 238 238 238 238 238 238 239 239 240 242 244 249 253 256 258 259 260 261 261 261 260 260 260 259 257 256 255 253 250 249 248 247 249 249 249 250 250 252 253 253 255 253 253 257 263 267 271 269 264 260 259 261 261 259 257 260 265 270 276 278 276 275 272 273 276 275 273 271 269 265 262 261 262 262 264 265 265 264 264 263 261 260 263
238 238 238 238 238 238 238 237 236 236 237 238 239 240 242 245 249 254 259 261 260 260 261 260 260 260 259 258 257 255 254 254 253 252 251 251 251 252 253 252 253 254 254 252 251 252 252 254 261 266 266 265 261 258 259 260 261 258 255 256 261 268 274 278 279 277 275 273 275 276 275 274 271 267 265 262 261 261 262 262 262 261 258 253 252 252 256 263
237 236 236 237 237 236 237 236 235 235 235 236 238 240 244 247 250 255 260 264 264 260 259 259 259 259 257 255 254 254 253 252 253 253 252 252 252 252 254 253 253 254 252 250 250 250 252 258 265 265 261 258 257 257 257 257 257 254 253 256 263 270 276 278 278 279 277 275 275 277 278 277 272 267 266 265 264 263 262 261 257 253 250 245 244 248 256 262
235 235 235 235 235 235 235 235 235 235 235 236 238 241 245 249 252 257 261 266 266 261 258 258 257 255 254 254 254 252 253 253 252 252 251 251 252 251 252 253 253 252 251 252 253 253 255 260 262 260 256 254 254 254 254 254 254 255 256 258 265 272 276 274 273 278 280 277 275 278 283 281 276 272 269 265 264 263 259 254 248 243 241 242 244 251 258 260
233 233 233 234 234 233 233 234 235 234 235 236 238 242 246 250 254 259 263 268 268 264 258 256 256 255 253 251 251 251 253 252 249 250 251 251 251 251 252 252 250 251 252 252 253 254 255 258 258 258 257 256 256 257 256 256 255 257 261 263 267 272 273 271 270 274 277 277 276 277 278 279 278 277 273 265 257 255 251 243 238 237 239 242 247 251 252 252
231 231 231 232 233 232 232 233 233 233 235 235 238 242 245 250 254 258 262 270 271 266 261 258 255 253 250 247 247 248 250 251 248 247 248 248 249 249 249 249 248 250 252 252 252 253 254 256 256 256 257 257 257 257 257 256 255 259 265 268 269 269 268 268 269 269 262 264 275 270 248 258 273 269 271 268 253 244 240 237 235 237 240 242 245 245 245 252
229 229 230 231 231 232 232 233 232 232 234 234 237 241 244 249 251 255 262 274 273 267 263 256 251 249 248 246 245 241 242 248 247 244 245 245 246 246 246 248 248 249 250 247 246 251 255 256 256 256 257 256 255 256 260 258 256 259 265 270 270 268 267 266 264 258 251 254 267 263 253 258 266 262 262 256 246 237 231 234 235 236 239 238 240 243 248 257
230 229 229 230 231 231 233 233 231 231 233 233 235 240 242 244 246 248 251 263 266 264 260 249 246 247 245 243 242 236 237 245 246 243 243 243 243 244 245 247 249 250 250 246 244 252 259 259 259 259 257 256 256 260 262 259 256 258 265 269 267 267 265 258 252 249 253 257 257 256 253 252 258 262 265 256 244 241 239 242 242 241 242 242 245 249 252 256
230 230 230 231 231 231 232 233 231 229 231 232 233 236 235 236 236 230 223 242 252 254 248 238 237 239 237 236 236 236 239 242 242 244 244 241 241 242 243 246 247 248 248 248 247 253 258 257 258 258 254 255 257 259 255 250 253 256 261 263 261 260 254 247 246 246 253 251 244 250 249 246 253 255 260 258 249 249 250 249 247 244 243 245 246 249 248 248
230 229 230 231 233 232 230 231 231 229 230 231 231 229 226 224 219 202 194 238 243 246 238 228 231 232 228 228 229 231 237 239 240 242 241 239 239 240 241 243 244 245 247 248 248 251 253 255 255 253 253 255 253 251 248 246 248 249 251 249 248 249 244 244 245 242 253 248 243 252 250 245 250 249 255 258 254 253 249 241 240 239 238 240 241 241 243 240
232 230 230 230 232 233 232 232 231 229 229 229 226 220 213 210 204 185 215 237 236 239 230 221 225 229 229 232 234 235 235 236 238 238 238 238 238 238 237 236 236 237 241 244 247 249 250 250 250 250 252 252 250 249 246 245 244 242 240 234 229 230 230 239 235 225 237 238 235 248 244 234 229 237 253 255 246 238 232 229 230 228 226 229 232 236 237 232
233 233 232 231 232 234 234 233 231 227 226 224 218 210 203 196 197 207 223 233 237 240 231 224 224 227 230 235 237 236 234 236 237 236 238 237 237 238 238 236 233 228 232 239 243 246 248 248 249 250 251 250 248 244 240 239 237 233 225 214 206 195 201 218 201 208 237 237 230 233 225 223 233 243 246 242 238 225 219 219 214 209 214 222 228 234 232 230
235 236 235 232 232 234 234 234 232 226 222 219 211 207 202 191 211 223 223 221 219 226 224 220 223 224 226 228 230 230 230 234 235 234 237 236 237 239 240 241 239 233 234 240 239 240 247 252 249 247 248 249 245 238 234 233 229 225 217 204 196 185 192 220 207 239 256 240 232 222 215 231 245 253 252 239 229 211 201 201 202 211 220 220 224 230 231 235
237 237 238 235 233 233 232 232 233 229 221 214 205 199 195 201 227 230 226 222 220 224 228 207 203 212 217 223 228 228 226 230 232 231 234 234 235 237 237 238 238 236 236 239 237 234 237 250 248 245 246 248 245 241 239 239 236 233 225 213 206 204 211 220 205 226 279 211 207 194 196 228 227 243 250 226 211 200 196 199 209 220 217 213 222 229 232 241
236 236 238 238 234 233 231 228 231 230 220 211 200 193 194 212 227 229 227 226 223 225 232 226 209 210 215 222 228 226 225 228 231 230 232 234 235 237 238 237 235 234 233 230 232 234 234 244 250 248 247 246 244 241 238 234 233 235 225 215 215 221 229 240 237 227 227 42 198 193 211 230 218 215 217 208 206 202 203 209 214 217 212 214 229 232 235 242
236 233 235 236 234 234 232 228 229 227 220 211 198 196 208 221 226 227 228 229 227 227 230 229 227 224 221 223 226 224 223 227 229 229 232 234 237 239 239 239 238 238 237 233 234 234 231 243 250 246 243 239 230 231 230 223 221 220 212 212 219 224 228 234 255 250 249 278 236 208 225 238 237 240 228 212 213 209 210 216 216 216 218 225 232 232 235 242
237 233 232 234 234 233 231 229 229 226 221 214 203 205 220 228 229 230 232 232 232 233 232 231 233 232 226 224 226 225 223 226 228 229 231 233 237 239 237 238 239 241 244 242 241 241 238 246 251 241 236 231 220 219 222 220 221 217 212 218 224 225 227 229 241 255 221 258 249 212 224 230 226 235 229 216 215 216 219 221 218 222 231 236 233 229 235 242
240 237 233 232 233 234 232 228 228 225 218 212 212 220 229 232 232 233 234 236 237 236 233 233 237 238 232 228 228 226 223 224 226 226 228 231 236 241 238 238 240 242 245 243 240 242 241 244 251 238 229 226 220 216 214 216 220 221 223 225 218 214 219 213 215 237 207 238 270 211 217 223 217 221 228 224 219 219 222 222 224 231 236 234 227 228 240 246
239 240 239 234 232 232 231 228 226 222 213 208 213 227 233 233 235 236 234 237 239 236 236 238 239 238 237 234 231 227 224 227 229 227 227 230 236 243 242 241 243 243 243 242 240 241 237 235 245 237 224 218 216 214 212 213 214 217 222 223 215 216 213 202 211 223 203 228 263 214 206 228 230 231 235 237 232 223 221 224 227 231 228 222 224 237 247 250
237 237 240 237 233 233 231 228 222 214 210 211 216 228 235 234 235 236 235 236 236 236 239 240 238 236 237 236 233 228 226 230 234 231 230 233 237 244 247 245 246 244 241 239 238 238 234 231 235 231 220 213 215 218 221 221 218 216 216 214 213 214 210 214 225 224 218 238 259 248 246 231 234 239 230 217 212 211 217 225 223 216 214 220 234 247 250 249
238 232 235 234 230 230 228 222 213 207 209 216 221 229 234 234 234 236 235 234 234 235 238 239 237 236 238 237 233 230 227 230 234 232 233 237 239 244 248 249 250 246 238 232 232 233 230 227 228 225 218 217 222 228 229 227 228 228 227 224 221 218 212 213 230 222 221 229 224 241 282 247 220 227 198 183 196 211 207 203 203 206 218 235 246 251 251 250
236 229 233 234 229 227 224 217 211 208 209 217 225 227 229 231 234 235 236 234 233 234 236 237 237 237 238 240 239 236 233 233 235 234 235 240 243 248 252 252 251 247 241 239 242 240 230 225 226 227 228 230 231 232 229 227 228 229 231 232 231 228 220 213 218 216 214 225 231 243 282 258 232 213 186 185 204 210 197 193 204 224 242 252 254 254 252 248
232 229 234 237 232 228 223 215 210 209 213 222 228 227 227 230 232 233 235 235 233 232 233 235 236 236 237 239 241 241 239 238 239 239 241 244 248 250 251 251 249 245 241 240 245 240 227 221 222 225 233 237 236 235 232 230 228 225 229 230 227 228 225 222 230 230 217 221 219 216 267 242 223 221 220 215 207 196 198 210 228 241 245 248 250 250 246 243
231 231 233 235 233 229 222 214 209 211 217 223 223 224 227 229 229 230 232 233 234 234 234 234 235 235 236 237 239 241 239 238 240 242 243 245 248 248 246 246 245 244 243 243 246 242 227 218 214 211 226 237 235 238 234 228 226 227 229 228 225 227 226 225 229 230 236 233 214 207 243 225 216 234 237 225 208 200 212 231 238 236 233 236 243 246 242 240
235 235 234 232 229 228 227 224 221 220 222 220 218 223 227 228 230 232 232 231 233 235 235 236 236 236 236 237 238 239 239 238 240 242 241 241 243 244 242 242 243 243 244 244 244 240 229 218 211 205 201 208 213 221 226 225 223 224 227 226 226 226 224 223 223 222 235 234 215 218 230 226 236 240 227 218 211 211 228 240 240 240 245 250 254 254 246 241
237 234 232 227 220 218 224 230 229 228 228 224 220 224 226 228 232 234 232 231 231 231 232 235 236 235 235 236 236 236 236 235 236 238 239 240 241 241 240 240 241 241 240 240 238 235 229 222 221 220 220 222 225 229 234 232 226 225 228 228 227 226 225 224 221 219 223 220 222 230 231 235 245 232 215 223 222 221 239 248 253 259 267 269 264 256 247 241
238 235 231 225 213 207 212 219 222 227 233 230 226 227 227 229 233 232 231 232 232 232 232 232 232 231 231 232 232 233 235 233 232 233 236 239 240 240 239 238 239 238 237 236 234 231 226 225 229 229 229 232 235 240 248 248 240 235 235 234 230 227 224 220 219 224 223 218 237 243 236 238 243 233 229 243 244 246 254 257 263 269 273 274 264 248 242 242
237 236 234 231 222 214 214 216 218 224 231 230 230 231 229 229 230 230 232 233 232 232 231 231 232 231 231 233 232 232 233 232 232 234 235 236 237 237 236 235 237 239 237 234 231 229 227 230 233 231 232 236 237 240 247 252 250 244 241 240 237 231 225 222 223 226 223 222 239 247 244 247 249 243 247 256 257 258 260 258 261 270 278 279 263 243 242 249
239 239 237 236 234 230 228 226 222 222 226 227 228 229 229 230 232 233 232 232 231 232 230 230 233 234 235 236 235 233 233 232 231 233 234 234 234 234 233 233 234 235 235 233 232 229 228 233 237 235 235 238 237 238 242 246 247 241 235 238 240 237 233 231 230 229 229 235 243 247 251 256 255 250 252 258 258 258 258 258 264 274 281 276 257 245 250 259
240 241 241 240 240 238 237 233 225 222 224 225 226 230 231 233 236 236 233 230 231 233 232 232 236 237 236 235 234 233 234 235 235 235 234 234 235 235 236 237 237 236 233 230 230 229 227 232 237 236 234 238 238 237 238 241 242 241 239 238 237 235 233 233 234 233 233 239 243 243 249 255 255 254 254 256 258 259 260 264 271 278 277 265 256 256 263 267
238 242 242 242 243 241 238 235 228 224 223 223 225 230 232 234 237 237 234 233 235 235 235 237 239 239 237 236 236 236 236 238 240 241 242 242 244 245 246 246 245 243 238 233 231 230 229 231 233 231 230 234 236 235 236 239 239 240 243 240 232 228 228 228 232 233 233 238 242 241 245 251 256 259 260 260 262 264 266 271 276 276 270 264 263 266 268 269
233 238 240 240 240 240 237 234 228 223 222 223 225 229 231 234 238 235 231 233 236 236 238 240 241 240 238 238 240 241 241 241 241 244 246 247 248 249 248 249 249 247 242 238 233 231 229 228 226 224 224 231 235 235 235 235 236 240 243 240 234 232 233 231 231 234 236 238 240 242 247 255 261 264 265 266 268 270 272 274 274 270 267 266 266 266 267 268
Height
3177 3178 3178 3179 3180 3180 3181 3182 3183 3183 3184 3185 3185 3186 3187 3188 3189 3189 3190 3191 3191 3192 3192 3193 3193 3194 3194 3194 3194 3194 3194 3194 3194 3194 3194 3194 3194 3194 3194 3194 3195 3195 3195 3195 3195 3195 3195 3195 3194 3194 3195 3195 3195 3195 3195 3195 3195 3195 3195 3195 3195 3195 3195 3196 3196 3196 3196 3196 3196 3197 3197 3197 3197 3197 3197 3196 3195 3195 3194 3193 3194 3193 3193 3193 3193 3193 3192 3192
3176 3177 3177 3178 3179 3179 3180 3181 3182 3183 3183 3184 3185 3185 3186 3187 3188 3189 3189 3190 3190 3191 3191 3192 3192 3193 3193 3193 3193 3193 3193 3193 3193 3193 3193 3193 3193 3194 3194 3194 3194 3194 3194 3194 3194 3194 3194 3194 3194 3194 3194 3194 3194 3194 3194 3194 3194 3194 3194 3195 3195 3194 3195 3195 3195 3195 3195 3195 3195 3196 3196 3196 3196 3196 3196 3195 3194 3194 3193 3192 3192 3192 3192 3192 3192 3191 3191 3191
3174 3175 3176 3177 3178 3179 3179 3180 3181 3182 3183 3183 3184 3185 3186 3186 3187 3188 3189 3189 3190 3190 3191 3191 3192 3192 3192 3192 3192 3192 3192 3192 3192 3192 3192 3192 3193 3193 3193 3193 3193 3193 3193 3193 3193 3193 3193 3193 3193 3193 3193 3193 3194 3194 3194 3194 3194 3194 3194 3194 3194 3194 3194 3194 3194 3195 3195 3195 3194 3195 3195 3195 3195 3195 3195 3195 3194 3193 3192 3191 3190 3190 3191 3191 3191 3190 3190 3190
3173 3174 3175 3176 3176 3177 3178 3179 3180 3181 3182 3183 3183 3184 3185 3186 3186 3187 3188 3188 3189 3189 3190 3190 3191 3191 3191 3191 3191 3191 3191 3191 3191 3191 3191 3191 3192 3192 3192 3192 3192 3192 3192 3192 3192 3192 3192 3192 3192 3192 3193 3193 3193 3193 3193 3193 3193 3193 3194 3193 3193 3193 3193 3193 3193 3194 3194 3194 3194 3194 3193 3193 3193 3193 3193 3193 3193 3192 3191 3190 3189 3189 3189 3189 3189 3189 3189 3189
3172 3172 3173 3174 3175 3176 3177 3178 3179 3180 3181 3181 3182 3183 3184 3185 3185 3186 3187 3187 3188 3188 3189 3189 3189 3190 3190 3190 3190 3190 3190 3190 3190 3190 3190 3190 3190 3191 3191 3191 3191 3191 3191 3191 3191 3192 3192 3192 3192 3192 3192 3192 3193 3193 3193 3193 3193 3193 3193 3193 3193 3193 3193 3193 3193 3193 3193 3193 3193 3192 3192 3192 3192 3191 3191 3191 3192 3191 3190 3190 3189 3189 3188 3188 3188 3188 3188 3188
3170 3171 3172 3172 3173 3174 3176 3177 3178 3179 3180 3180 3181 3182 3183 3184 3184 3185 3186 3186 3186 3187 3187 3188 3188 3188 3189 3189 3189 3189 3189 3189 3189 3189 3189 3189 3190 3190 3190 3190 3190 3190 3191 3191 3191 3191 3191 3191 3191 3191 3191 3192 3192 3192 3192 3192 3192 3192 3192 3192 3192 3192 3192 3192 3192 3192 3192 3192 3191 3191 3191 3191 3190 3190 3189 3189 3190 3189 3189 3189 3188 3188 3187 3187 3187 3187 3187 3187
3169 3169 3170 3171 3172 3173 3174 3175 3176 3177 3178 3179 3180 3181 3181 3182 3183 3184 3184 3185 3185 3185 3186 3186 3186 3187 3187 3187 3187 3188 3188 3188 3187 3188 3188 3188 3189 3189 3189 3189 3189 3190 3190 3190 3190 3190 3190 3190 3190 3191 3191 3191 3191 3191 3191 3191 3191 3191 3191 3191 3191 3191 3191 3191 3191 3191 3191 3190 3190 3190 3189 3189 3189 3188 3188 3188 3188 3187 3187 3188 3187 3187 3186 3186 3186 3185 3185 3185
3167 3168 3169 3170 3170 3171 3172 3173 3174 3175 3176 3177 3178 3179 3180 3181 3181 3182 3183 3183 3183 3184 3184 3184 3185 3185 3185 3186 3186 3186 3187 3186 3186 3186 3187 3187 3187 3188 3188 3188 3188 3189 3189 3189 3189 3189 3190 3190 3190 3190 3190 3190 3190 3190 3191 3191 3190 3190 3190 3190 3190 3189 3189 3189 3189 3189 3189 3189 3188 3188 3188 3188 3187 3186 3186 3186 3186 3186 3186 3186 3186 3185 3185 3185 3184 3184 3184 3184
3165 3166 3167 3168 3169 3170 3171 3172 3173 3174 3175 3176 3176 3177 3178 3179 3180 3180 3181 3181 3182 3182 3183 3183 3183 3183 3184 3184 3184 3185 3185 3185 3185 3185 3185 3186 3186 3186 3187 3187 3187 3188 3188 3188 3188 3188 3188 3189 3189 3189 3189 3189 3189 3189 3189 3190 3189 3189 3189 3189 3189 3188 3188 3188 3188 3188 3187 3187 3187 3186 3186 3186 3185 3185 3184 3184 3184 3184 3184 3184 3184 3184 3184 3184 3183 3183 3183 3183
3162 3163 3165 3166 3167 3168 3169 3170 3171 3172 3173 3174 3175 3175 3176 3177 3178 3179 3179 3180 3180 3181 3181 3181 3181 3181 3182 3182 3183 3183 3184 3183 3183 3183 3184 3184 3185 3185 3185 3186 3186 3186 3187 3187 3187 3187 3187 3187 3187 3188 3188 3188 3188 3188 3188 3188 3188 3188 3188 3188 3187 3187 3186 3186 3186 3186 3186 3185 3185 3184 3184 3184 3183 3183 3182 3182 3182 3182 3182 3182 3182 3182 3182 3182 3182 3182 3182 3181
3160 3161 3162 3163 3165 3166 3167 3168 3169 3170 3171 3172 3173 3173 3174 3175 3176 3177 3177 3178 3178 3179 3179 3179 3179 3180 3180 3180 3181 3182 3182 3182 3182 3182 3182 3183 3183 3184 3184 3184 3185 3185 3185 3185 3186 3186 3186 3186 3186 3186 3186 3186 3186 3186 3186 3186 3186 3186 3186 3186 3186 3185 3185 3184 3184 3184 3184 3183 3183 3182 3182 3182 3181 3181 3180 3180 3180 3180 3180 3180 3180 3180 3180 3180 3180 3180 3180 3180
3157 3158 3159 3161 3162 3163 3164 3166 3167 3168 3169 3170 3170 3171 3172 3173 3174 3175 3175 3176 3176 3177 3177 3177 3178 3178 3178 3178 3179 3180 3180 3180 3180 3180 3180 3181 3182 3182 3182 3183 3183 3183 3184 3184 3184 3184 3184 3184 3185 3185 3185 3184 3184 3184 3184 3184 3184 3184 3184 3184 3184 3183 3183 3182 3182 3182 3182 3181 3181 3181 3180 3179 3179 3179 3179 3179 3178 3178 3178 3178 3178 3178 3178 3178 3178 3178 3178 3178
3154 3156 3157 3158 3159 3161 3162 3163 3164 3165 3166 3167 3168 3169 3170 3171 3172 3172 3173 3174 3174 3175 3175 3175 3175 3176 3176 3176 3177 3178 3178 3178 3178 3178 3179 3179 3180 3180 3181 3181 3181 3182 3182 3182 3182 3182 3182 3182 3183 3183 3183 3183 3183 3183 3182 3182 3182 3182 3182 3182 3182 3182 3181 3180 3180 3180 3180 3180 3179 3179 3179 3177 3176 3177 3177 3177 3177 3176 3176 3176 3176 3176 3176 3176 3176 3176 3176 3176
3151 3152 3154 3155 3156 3158 3159 3161 3162 3163 3164 3165 3166 3167 3168 3169 3169 3170 3171 3171 3172 3172 3173 3173 3173 3173 3173 3174 3175 3175 3175 3176 3176 3176 3177 3177 3178 3178 3179 3179 3179 3180 3180 3180 3180 3180 3180 3181 3181 3181 3181 3181 3181 3181 3181 3181 3180 3180 3180 3179 3179 3180 3179 3178 3178 3178 3178 3178 3177 3177 3177 3175 3174 3175 3175 3174 3174 3174 3174 3174 3174 3174 3174 3174 3174 3174 3174 3174
3147 3149 3150 3151 3153 3155 3156 3158 3159 3160 3161 3162 3163 3164 3165 3166 3167 3168 3168 3169 3169 3170 3170 3170 3171 3171 3170 3171 3172 3172 3173 3173 3174 3174 3174 3175 3176 3176 3177 3177 3177 3178 3178 3178 3178 3178 3178 3178 3179 3179 3179 3179 3179 3179 3179 3179 3178 3178 3179 3177 3177 3178 3177 3176 3176 3176 3176 3176 3176 3176 3175 3173 3172 3173 3172 3172 3172 3172 3172 3171 3171 3171 3172 3172 3172 3172 3172 3171
3144 3145 3147 3148 3149 3151 3153 3154 3156 3157 3158 3160 3161 3162 3163 3163 3164 3165 3166 3166 3167 3167 3167 3168 3168 3168 3167 3168 3169 3169 3170 3171 3171 3172 3172 3173 3173 3174 3174 3175 3175 3175 3176 3176 3176 3176 3176 3176 3176 3176 3176 3176 3176 3177 3177 3177 3176 3176 3177 3175 3175 3175 3174 3174 3174 3174 3175 3174 3174 3174 3173 3171 3171 3171 3170 3170 3170 3170 3169 3169 3169 3169 3169 3170 3170 3169 3169 3169
3141 3142 3143 3144 3146 3148 3149 3151 3153 3154 3155 3156 3158 3159 3160 3160 3161 3162 3163 3164 3164 3164 3165 3165 3166 3166 3164 3165 3166 3167 3167 3168 3168 3169 3169 3170 3171 3171 3172 3172 3173 3173 3173 3173 3173 3173 3173 3174 3174 3174 3174 3174 3174 3175 3176 3175 3174 3174 3174 3173 3173 3172 3172 3172 3172 3172 3172 3172 3171 3171 3170 3169 3169 3169 3168 3168 3168 3167 3167 3167 3167 3167 3167 3167 3167 3167 3166 3166
3137 3139 3140 3141 3142 3144 3146 3147 3149 3151 3152 3153 3154 3155 3156 3157 3158 3159 3160 3161 3161 3162 3162 3162 3163 3162 3161 3162 3163 3164 3165 3165 3165 3166 3167 3168 3168 3169 3169 3170 3170 3171 3171 3171 3171 3171 3171 3171 3171 3172 3171 3170 3171 3172 3173 3173 3173 3172 3172 3171 3171 3170 3170 3170 3170 3170 3170 3170 3169 3168 3167 3166 3166 3166 3166 3165 3165 3165 3164 3164 3165 3165 3165 3165 3164 3164 3164 3164
3133 3135 3136 3137 3139 3141 3142 3144 3146 3147 3149 3150 3151 3152 3153 3154 3155 3156 3157 3157 3158 3159 3159 3159 3159 3159 3158 3159 3161 3161 3161 3162 3162 3163 3164 3165 3166 3166 3167 3167 3168 3168 3168 3168 3168 3168 3168 3168 3169 3168 3167 3167 3168 3170 3170 3170 3170 3170 3169 3169 3168 3168 3168 3167 3167 3167 3167 3167 3166 3165 3164 3164 3163 3163 3163 3162 3162 3161 3161 3161 3162 3162 3162 3162 3162 3162 3162 3162
3129 3131 3132 3134 3135 3137 3139 3141 3142 3144 3145 3146 3148 3149 3150 3151 3152 3152 3153 3154 3154 3155 3155 3155 3155 3155 3155 3157 3158 3158 3159 3159 3160 3161 3162 3163 3163 3164 3164 3164 3165 3165 3165 3165 3165 3165 3166 3165 3165 3165 3165 3166 3167 3168 3168 3167 3168 3167 3167 3167 3166 3166 3165 3165 3165 3165 3164 3164 3162 3162 3162 3161 3161 3160 3159 3159 3158 3158 3158 3159 3159 3159 3159 3159 3159 3159 3159 3160
3125 3127 3128 3130 3132 3134 3135 3137 3139 3140 3142 3143 3144 3146 3147 3148 3149 3149 3150 3150 3151 3151 3151 3151 3151 3151 3152 3153 3154 3155 3156 3156 3157 3158 3159 3160 3161 3161 3161 3162 3162 3162 3162 3163 3163 3163 3163 3161 3161 3163 3163 3164 3165 3165 3165 3164 3165 3165 3164 3164 3164 3163 3163 3162 3162 3162 3162 3161 3159 3159 3158 3157 3158 3156 3154 3154 3154 3155 3155 3156 3156 3156 3156 3156 3156 3157 3157 3157
3121 3123 3124 3126 3128 3130 3132 3133 3135 3136 3138 3139 3141 3143 3144 3146 3146 3146 3146 3145 3145 3147 3147 3146 3146 3147 3149 3150 3150 3152 3152 3153 3154 3155 3156 3157 3158 3158 3158 3159 3159 3159 3159 3160 3160 3160 3158 3157 3158 3161 3161 3162 3161 3161 3162 3162 3162 3162 3162 3162 3161 3160 3160 3160 3160 3159 3159 3158 3156 3156 3154 3153 3154 3153 3150 3151 3151 3152 3152 3153 3153 3152 3152 3152 3153 3154 3154 3154
3117 3119 3121 3122 3124 3126 3128 3130 3131 3132 3134 3136 3138 3141 3142 3143 3143 3143 3143 3141 3140 3141 3142 3142 3142 3143 3144 3145 3146 3148 3148 3149 3151 3151 3153 3154 3154 3155 3155 3155 3156 3155 3156 3156 3156 3156 3154 3154 3157 3158 3158 3158 3158 3158 3159 3159 3159 3158 3159 3159 3158 3157 3158 3158 3157 3156 3156 3156 3154 3153 3151 3150 3150 3149 3147 3147 3147 3148 3149 3149 3149 3149 3149 3149 3150 3151 3152 3152
3112 3115 3116 3117 3120 3122 3124 3126 3126 3128 3131 3133 3136 3138 3139 3140 3141 3140 3140 3137 3133 3134 3137 3137 3137 3137 3139 3141 3142 3143 3144 3146 3147 3147 3149 3150 3151 3152 3151 3152 3153 3151 3151 3153 3153 3152 3151 3152 3154 3155 3155 3155 3155 3155 3156 3156 3155 3155 3156 3156 3155 3155 3156 3156 3155 3154 3154 3153 3151 3152 3150 3145 3144 3144 3143 3143 3143 3144 3145 3145 3146 3146 3146 3147 3148 3149 3149 3150
3108 3111 3112 3113 3115 3117 3120 3121 3122 3126 3129 3131 3134 3136 3136 3137 3137 3138 3138 3134 3126 3126 3131 3132 3131 3132 3134 3136 3137 3139 3140 3140 3142 3143 3145 3147 3147 3147 3147 3148 3148 3146 3148 3150 3150 3148 3147 3149 3151 3151 3152 3152 3152 3152 3153 3154 3153 3152 3152 3152 3153 3153 3153 3153 3153 3152 3152 3150 3149 3151 3149 3142 3140 3141 3140 3140 3140 3140 3141 3141 3142 3143 3144 3145 3146 3147 3147 3147
3104 3106 3107 3109 3110 3113 3115 3115 3120 3124 3125 3129 3132 3132 3133 3134 3135 3135 3136 3133 3121 3116 3123 3126 3126 3126 3127 3130 3132 3136 3136 3133 3137 3140 3140 3142 3143 3143 3143 3143 3143 3143 3145 3147 3147 3143 3143 3145 3147 3148 3148 3149 3149 3149 3150 3151 3150 3149 3148 3149 3150 3150 3150 3150 3150 3150 3150 3148 3146 3148 3147 3141 3138 3139 3138 3138 3137 3137 3138 3139 3139 3141 3142 3143 3144 3144 3145 3145
3099 3101 3102 3104 3105 3108 3109 3112 3118 3120 3122 3127 3128 3128 3130 3131 3133 3133 3135 3133 3116 3107 3114 3118 3119 3119 3121 3125 3128 3131 3130 3127 3132 3135 3135 3137 3138 3138 3138 3137 3139 3140 3141 3144 3142 3138 3139 3142 3143 3144 3145 3145 3145 3145 3147 3149 3148 3146 3145 3147 3148 3147 3148 3148 3148 3148 3147 3146 3145 3145 3144 3141 3137 3136 3137 3137 3136 3136 3136 3137 3138 3139 3140 3140 3141 3142 3142 3143
3094 3096 3097 3098 3100 3103 3105 3109 3113 3116 3119 3123 3123 3125 3127 3128 3131 3131 3135 3132 3110 3100 3107 3110 3112 3114 3117 3120 3123 3124 3123 3124 3128 3129 3131 3133 3133 3134 3134 3133 3135 3136 3138 3140 3137 3135 3137 3140 3140 3141 3142 3141 3141 3142 3145 3146 3145 3143 3144 3145 3145 3145 3145 3145 3146 3145 3144 3144 3143 3141 3141 3140 3134 3132 3135 3135 3134 3134 3134 3135 3136 3136 3137 3138 3139 3139 3140 3140
3089 3091 3092 3094 3096 3098 3101 3103 3107 3112 3116 3117 3119 3121 3122 3125 3127 3129 3134 3125 3103 3097 3103 3105 3108 3110 3112 3116 3117 3119 3120 3122 3124 3125 3127 3129 3128 3129 3129 3130 3132 3133 3134 3135 3133 3133 3134 3136 3137 3138 3138 3137 3139 3141 3142 3143 3142 3141 3142 3142 3143 3143 3143 3144 3144 3143 3143 3142 3139 3137 3138 3137 3130 3127 3131 3131 3130 3131 3132 3133 3133 3133 3134 3135 3136 3137 3137 3138
3084 3086 3088 3089 3090 3092 3094 3098 3103 3109 3111 3113 3115 3116 3118 3121 3122 3127 3129 3113 3097 3096 3099 3101 3105 3106 3109 3112 3113 3115 3117 3118 3120 3121 3123 3124 3124 3125 3125 3127 3129 3129 3130 3130 3130 3130 3131 3132 3134 3134 3133 3134 3136 3138 3138 3139 3139 3139 3140 3140 3141 3142 3142 3143 3141 3142 3142 3136 3133 3134 3134 3135 3129 3123 3125 3126 3126 3128 3129 3129 3129 3130 3131 3132 3133 3134 3135 3136
3078 3081 3082 3084 3085 3086 3089 3094 3100 3105 3105 3107 3109 3111 3113 3115 3118 3121 3113 3098 3094 3095 3094 3097 3100 3102 3106 3109 3110 3113 3113 3115 3116 3117 3118 3119 3120 3120 3121 3123 3124 3125 3126 3125 3125 3126 3127 3128 3128 3129 3130 3131 3133 3134 3135 3136 3136 3136 3137 3138 3140 3141 3141 3141 3140 3141 3139 3130 3127 3129 3130 3132 3128 3121 3121 3123 3123 3125 3125 3125 3126 3127 3129 3130 3131 3132 3133 3133
3073 3075 3077 3079 3081 3082 3084 3091 3096 3099 3099 3101 3104 3106 3108 3111 3112 3106 3094 3091 3094 3091 3088 3094 3096 3099 3104 3105 3107 3109 3110 3112 3112 3113 3114 3115 3115 3115 3116 3117 3119 3122 3121 3120 3121 3122 3122 3123 3124 3125 3126 3127 3129 3130 3131 3132 3132 3133 3134 3136 3139 3139 3139 3139 3137 3136 3132 3125 3125 3126 3127 3127 3121 3117 3119 3120 3121 3122 3122 3123 3124 3125 3127 3128 3129 3130 3130 3131
3068 3070 3071 3073 3075 3077 3080 3086 3090 3091 3093 3096 3099 3100 3103 3105 3098 3087 3084 3087 3089 3085 3086 3091 3092 3096 3100 3100 3102 3105 3106 3107 3108 3109 3110 3111 3111 3111 3113 3114 3115 3117 3116 3116 3118 3119 3119 3119 3120 3121 3121 3122 3123 3124 3125 3126 3127 3128 3129 3132 3134 3135 3136 3134 3131 3130 3126 3122 3122 3124 3126 3122 3115 3114 3116 3117 3119 3120 3120 3121 3122 3123 3125 3126 3127 3128 3128 3129
3063 3065 3066 3067 3070 3072 3077 3081 3083 3085 3088 3091 3093 3093 3096 3092 3081 3075 3078 3081 3082 3083 3085 3088 3089 3093 3095 3096 3098 3100 3102 3103 3103 3105 3106 3106 3107 3106 3108 3109 3110 3112 3114 3115 3116 3116 3117 3114 3114 3115 3115 3116 3117 3118 3120 3122 3124 3125 3126 3128 3128 3128 3129 3126 3124 3123 3120 3119 3120 3123 3122 3115 3110 3111 3111 3113 3116 3117 3118 3120 3121 3122 3123 3124 3125 3126 3126 3127
3058 3060 3061 3062 3063 3066 3070 3074 3077 3080 3082 3084 3086 3085 3083 3075 3066 3066 3070 3074 3079 3081 3083 3086 3088 3090 3091 3092 3094 3096 3098 3098 3099 3102 3101 3101 3101 3101 3102 3103 3105 3108 3110 3113 3113 3112 3112 3109 3109 3111 3111 3112 3113 3114 3117 3120 3122 3122 3123 3125 3124 3123 3123 3121 3120 3119 3118 3119 3118 3117 3114 3108 3107 3109 3109 3111 3113 3115 3117 3118 3119 3120 3121 3122 3123 3124 3125 3125
3051 3054 3056 3055 3056 3059 3063 3068 3072 3074 3075 3077 3078 3074 3067 3060 3057 3060 3064 3069 3074 3077 3080 3084 3085 3086 3087 3088 3089 3092 3094 3095 3096 3097 3097 3097 3096 3096 3097 3099 3102 3104 3105 3108 3108 3108 3108 3105 3106 3108 3108 3109 3111 3111 3113 3115 3117 3118 3119 3118 3118 3119 3120 3120 3119 3118 3119 3118 3111 3108 3106 3104 3106 3107 3107 3110 3111 3112 3115 3116 3117 3118 3119 3120 3121 3122 3123 3123
3044 3046 3047 3047 3049 3053 3058 3063 3066 3068 3070 3071 3068 3062 3055 3053 3056 3059 3063 3066 3070 3074 3078 3080 3079 3080 3081 3082 3084 3086 3090 3092 3092 3093 3093 3093 3091 3090 3092 3096 3099 3100 3101 3105 3105 3103 3105 3103 3103 3105 3105 3106 3107 3108 3109 3111 3112 3113 3113 3113 3116 3119 3119 3119 3119 3117 3118 3115 3105 3101 3102 3102 3103 3102 3102 3106 3109 3110 3112 3113 3114 3115 3116 3117 3118 3120 3121 3121
3038 3040 3039 3039 3043 3048 3054 3059 3059 3061 3064 3063 3061 3056 3051 3051 3054 3058 3060 3063 3067 3071 3074 3074 3073 3074 3075 3077 3078 3082 3086 3086 3086 3087 3088 3089 3086 3084 3088 3093 3095 3096 3100 3102 3101 3100 3102 3102 3101 3102 3103 3104 3105 3106 3106 3107 3108 3109 3109 3110 3113 3115 3114 3115 3116 3114 3113 3111 3102 3097 3098 3097 3096 3097 3098 3102 3105 3107 3109 3110 3111 3112 3113 3115 3116 3117 3118 3118
3035 3034 3030 3031 3038 3043 3049 3053 3053 3054 3056 3055 3054 3048 3043 3045 3049 3054 3058 3060 3064 3067 3068 3067 3069 3071 3071 3071 3074 3078 3081 3080 3080 3083 3083 3083 3082 3080 3084 3089 3091 3094 3097 3098 3097 3097 3099 3100 3098 3098 3100 3101 3101 3101 3100 3100 3102 3104 3105 3107 3109 3109 3109 3110 3109 3107 3106 3105 3100 3096 3094 3089 3088 3091 3095 3098 3101 3104 3105 3106 3108 3109 3111 3113 3114 3114 3115 3115
3027 3027 3022 3024 3032 3037 3042 3046 3045 3044 3044 3045 3044 3038 3035 3040 3045 3048 3053 3056 3060 3061 3061 3063 3067 3068 3066 3067 3070 3073 3076 3075 3076 3079 3078 3078 3077 3076 3080 3085 3087 3091 3093 3094 3093 3093 3096 3097 3095 3095 3096 3096 3094 3092 3092 3092 3095 3097 3099 3101 3102 3104 3106 3105 3103 3102 3102 3101 3098 3095 3089 3082 3083 3087 3091 3094 3098 3100 3102 3103 3106 3107 3109 3110 3111 3111 3111 3112
3020 3019 3015 3019 3026 3031 3036 3036 3033 3033 3034 3035 3035 3032 3033 3036 3039 3042 3046 3051 3055 3056 3057 3060 3063 3063 3063 3063 3065 3068 3072 3072 3072 3074 3073 3072 3072 3073 3076 3080 3083 3086 3088 3088 3088 3088 3090 3091 3091 3090 3089 3088 3087 3087 3089 3090 3091 3092 3092 3092 3094 3097 3100 3101 3098 3096 3098 3097 3095 3093 3086 3079 3080 3085 3087 3091 3095 3097 3099 3102 3104 3106 3107 3107 3108 3108 3108 3109
3013 3011 3010 3013 3018 3024 3027 3023 3022 3025 3026 3024 3024 3026 3029 3031 3034 3038 3041 3045 3049 3050 3052 3054 3056 3058 3059 3059 3061 3064 3067 3067 3067 3068 3067 3066 3068 3071 3074 3077 3079 3081 3083 3083 3082 3083 3085 3086 3087 3086 3084 3085 3086 3086 3087 3088 3088 3090 3089 3088 3090 3091 3091 3092 3090 3089 3093 3093 3091 3092 3087 3078 3078 3083 3085 3088 3091 3093 3096 3099 3101 3103 3104 3104 3105 3105 3106 3106
3007 3007 3007 3007 3011 3017 3019 3015 3015 3019 3018 3017 3020 3024 3026 3028 3031 3033 3035 3038 3042 3044 3046 3047 3049 3052 3054 3055 3057 3059 3062 3063 3061 3061 3062 3063 3065 3068 3071 3073 3074 3076 3077 3077 3077 3080 3082 3081 3082 3082 3082 3083 3084 3083 3084 3085 3085 3085 3083 3083 3084 3084 3085 3087 3086 3085 3088 3086 3087 3091 3085 3075 3075 3080 3083 3085 3088 3091 3093 3095 3098 3099 3100 3101 3101 3102 3102 3102
3003 3004 3003 3003 3005 3009 3009 3007 3009 3011 3011 3014 3019 3021 3023 3024 3025 3027 3029 3031 3034 3037 3040 3041 3042 3045 3048 3051 3052 3054 3056 3057 3055 3056 3059 3060 3060 3063 3066 3067 3068 3070 3071 3071 3072 3075 3074 3072 3075 3080 3081 3081 3082 3081 3080 3079 3078 3075 3073 3075 3078 3080 3083 3084 3083 3085 3083 3078 3081 3085 3077 3070 3073 3077 3079 3082 3085 3088 3090 3092 3093 3094 3095 3096 3097 3098 3098 3098
2998 2999 2999 3000 3001 3000 2999 3000 3002 3003 3005 3010 3013 3015 3018 3019 3019 3021 3024 3027 3029 3032 3034 3035 3037 3040 3044 3047 3048 3048 3050 3050 3050 3052 3053 3053 3054 3057 3060 3062 3063 3064 3064 3065 3067 3068 3067 3066 3068 3070 3070 3069 3069 3066 3064 3063 3066 3066 3067 3070 3073 3076 3077 3077 3079 3081 3076 3072 3075 3075 3070 3069 3072 3073 3076 3079 3081 3084 3087 3088 3089 3090 3091 3092 3093 3093 3093 3094
2993 2993 2994 2996 2996 2994 2994 2996 2999 2999 3002 3006 3007 3008 3011 3011 3012 3016 3020 3023 3024 3026 3028 3030 3032 3036 3039 3040 3041 3041 3042 3044 3046 3046 3046 3047 3048 3051 3054 3057 3058 3057 3058 3059 3061 3063 3063 3062 3061 3059 3057 3056 3055 3055 3055 3058 3061 3062 3062 3064 3067 3069 3070 3073 3075 3072 3068 3069 3068 3064 3067 3070 3069 3070 3073 3076 3078 3081 3082 3083 3085 3086 3087 3087 3088 3088 3089 3089
2987 2987 2989 2991 2991 2990 2989 2991 2993 2994 2996 2998 2999 3000 3003 3005 3008 3012 3014 3016 3017 3020 3023 3025 3027 3029 3030 3031 3033 3034 3035 3039 3040 3040 3040 3042 3043 3046 3049 3051 3051 3050 3052 3054 3055 3056 3056 3054 3053 3053 3053 3053 3053 3054 3056 3057 3058 3058 3059 3060 3062 3064 3065 3067 3065 3062 3064 3068 3061 3057 3064 3068 3065 3067 3071 3073 3075 3077 3078 3079 3080 3081 3082 3083 3083 3084 3084 3084
2981 2981 2983 2986 2986 2984 2984 2985 2986 2988 2991 2993 2994 2996 2999 3001 3004 3006 3007 3009 3012 3015 3018 3019 3019 3019 3021 3025 3028 3028 3031 3033 3033 3033 3035 3036 3038 3040 3043 3045 3045 3045 3047 3048 3048 3050 3050 3047 3047 3049 3049 3050 3052 3053 3053 3054 3054 3055 3056 3056 3057 3058 3058 3058 3057 3058 3061 3060 3054 3054 3059 3061 3061 3064 3067 3070 3072 3073 3073 3074 3075 3076 3077 3077 3078 3079 3079 3080
2975 2976 2978 2980 2980 2980 2981 2982 2983 2985 2987 2989 2991 2992 2994 2995 2997 2999 3001 3004 3006 3008 3010 3010 3009 3011 3015 3020 3022 3022 3024 3025 3024 3025 3028 3031 3033 3034 3036 3037 3038 3039 3041 3042 3042 3044 3045 3042 3043 3046 3045 3046 3048 3048 3049 3051 3051 3051 3051 3052 3052 3052 3052 3053 3054 3057 3057 3054 3052 3054 3056 3056 3058 3061 3064 3067 3068 3068 3069 3070 3071 3071 3072 3072 3074 3074 3075 3075
2970 2971 2973 2975 2975 2976 2978 2979 2981 2982 2983 2984 2985 2986 2988 2989 2990 2993 2997 2998 2998 3000 3003 3002 3002 3006 3011 3014 3015 3015 3016 3017 3018 3021 3024 3026 3026 3028 3029 3030 3031 3033 3035 3037 3037 3039 3039 3038 3039 3041 3042 3041 3042 3043 3045 3047 3047 3047 3047 3047 3046 3045 3047 3050 3052 3054 3053 3049 3050 3053 3051 3050 3053 3056 3060 3062 3063 3064 3066 3066 3067 3067 3067 3068 3069 3069 3069 3069
2965 2966 2968 2970 2971 2972 2973 2974 2976 2977 2977 2978 2979 2980 2983 2983 2985 2989 2992 2992 2993 2995 2996 2997 2999 3004 3007 3008 3009 3010 3012 3015 3016 3017 3020 3021 3021 3023 3024 3024 3027 3029 3030 3031 3032 3033 3034 3033 3034 3037 3037 3036 3036 3039 3040 3041 3043 3044 3040 3038 3038 3038 3041 3045 3046 3047 3047 3046 3048 3049 3046 3045 3048 3053 3056 3057 3059 3061 3061 3061 3062 3062 3062 3063 3063 3064 3064 3063
2961 2962 2963 2965 2966 2967 2969 2970 2971 2971 2972 2973 2974 2977 2979 2980 2983 2987 2988 2988 2989 2990 2991 2993 2997 3000 3001 3001 3002 3005 3008 3010 3011 3012 3014 3015 3015 3017 3019 3019 3022 3023 3024 3025 3025 3025 3026 3027 3028 3031 3032 3030 3032 3034 3035 3039 3041 3034 3025 3025 3031 3033 3035 3039 3040 3041 3042 3043 3044 3042 3040 3043 3048 3049 3051 3052 3054 3055 3056 3057 3057 3057 3058 3058 3058 3058 3058 3058